When you browse on this site, cookies collect data to enhance your experience and personalize the content and advertising you see.
Visit our Privacy Policy to learn more. By continuing to use the site, you agree to this use of cookies and data.

Hourly Weather Viesite

Today, 12 July, Sunday

Time Temperature Precipitation Wind Pressure Humidity
00:00 +10°C° 0 mm 2 mps 754 mmHg 91%
01:00 +10°C° 0 mm 2 mps 754 mmHg 94%
02:00 +10°C° 0 mm 1 mps 754 mmHg 98%
03:00 +10°C° 0 mm 1 mps 754 mmHg 98%
04:00 +10°C° 0 mm 1 mps 754 mmHg 98%
05:00 +10°C° 0 mm 1 mps 753 mmHg 97%
06:00 +12°C° 0 mm 1 mps 754 mmHg 90%
07:00 +13°C° 0 mm 2 mps 754 mmHg 83%
08:00 +15°C° 0 mm 2 mps 754 mmHg 76%
09:00 +16°C° 0 mm 2 mps 754 mmHg 70%
10:00 +18°C° 0 mm 2 mps 754 mmHg 64%
11:00 +19°C° 0 mm 2 mps 753 mmHg 58%
12:00 +19°C° 0.2 mm 2 mps 753 mmHg 58%
13:00 +19°C° 0.2 mm 3 mps 753 mmHg 58%
14:00 +20°C° 0.2 mm 3 mps 753 mmHg 58%
15:00 +19°C° 0.2 mm 3 mps 753 mmHg 60%
16:00 +19°C° 0.2 mm 3 mps 753 mmHg 62%
17:00 +19°C° 0.2 mm 3 mps 753 mmHg 65%
18:00 +18°C° 0.1 mm 2 mps 753 mmHg 71%
19:00 +16°C° 0.1 mm 2 mps 753 mmHg 78%
20:00 +15°C° 0.1 mm 2 mps 753 mmHg 84%
21:00 +14°C° 0 mm 2 mps 753 mmHg 88%
22:00 +13°C° 0 mm 2 mps 753 mmHg 92%
23:00 +10°C° 0 mm 2 mps 753 mmHg 95%

Tomorrow, 13 July, Monday

Time Temperature Precipitation Wind Pressure Humidity
00:00 +10°C° 0 mm 2 mps 753 mmHg 96%
01:00 +9°C° 0 mm 2 mps 753 mmHg 96%
02:00 +8°C° 0 mm 2 mps 753 mmHg 97%
03:00 +8°C° 0 mm 2 mps 753 mmHg 97%
04:00 +9°C° 0 mm 1 mps 753 mmHg 97%
05:00 +9°C° 0 mm 1 mps 752 mmHg 97%
06:00 +11°C° 0 mm 1 mps 753 mmHg 90%
07:00 +13°C° 0 mm 2 mps 753 mmHg 83%
08:00 +15°C° 0 mm 2 mps 753 mmHg 76%
09:00 +16°C° 0 mm 2 mps 753 mmHg 67%
10:00 +18°C° 0 mm 2 mps 752 mmHg 58%
11:00 +20°C° 0 mm 2 mps 752 mmHg 50%
12:00 +20°C° 0 mm 2 mps 752 mmHg 49%
13:00 +20°C° 0 mm 2 mps 752 mmHg 47%
14:00 +21°C° 0 mm 2 mps 752 mmHg 46%
15:00 +20°C° 0.2 mm 2 mps 751 mmHg 53%
16:00 +20°C° 0.2 mm 2 mps 751 mmHg 59%
17:00 +19°C° 0.2 mm 2 mps 751 mmHg 66%
18:00 +18°C° 0.1 mm 2 mps 751 mmHg 73%
19:00 +17°C° 0.1 mm 2 mps 751 mmHg 79%
20:00 +16°C° 0.1 mm 1 mps 751 mmHg 86%
21:00 +14°C° 0 mm 1 mps 751 mmHg 88%
22:00 +13°C° 0 mm 1 mps 751 mmHg 91%
23:00 +12°C° 0 mm 1 mps 751 mmHg 93%

Day after tomorrow, 14 July, Tuesday

Time Temperature Precipitation Wind Pressure Humidity
00:00 +11°C° 0 mm 1 mps 751 mmHg 93%
01:00 +11°C° 0 mm 1 mps 752 mmHg 92%
02:00 +10°C° 0 mm 1 mps 752 mmHg 92%
03:00 +10°C° 0 mm 1 mps 752 mmHg 92%
04:00 +10°C° 0 mm 1 mps 752 mmHg 92%
05:00 +9°C° 0 mm 0 mps 752 mmHg 91%
06:00 +12°C° 0 mm 1 mps 752 mmHg 84%
07:00 +14°C° 0 mm 1 mps 752 mmHg 77%
08:00 +16°C° 0 mm 1 mps 752 mmHg 69%
09:00 +19°C° 0 mm 1 mps 752 mmHg 61%
10:00 +21°C° 0 mm 1 mps 752 mmHg 53%
11:00 +22°C° 0 mm 1 mps 752 mmHg 44%
12:00 +23°C° 0 mm 1 mps 752 mmHg 42%
13:00 +23°C° 0 mm 1 mps 752 mmHg 41%
14:00 +24°C° 0 mm 1 mps 752 mmHg 39%
15:00 +23°C° 0 mm 2 mps 751 mmHg 42%
16:00 +23°C° 0 mm 2 mps 751 mmHg 45%
17:00 +23°C° 0 mm 2 mps 751 mmHg 48%
18:00 +21°C° 0 mm 1 mps 751 mmHg 57%
19:00 +19°C° 0 mm 1 mps 751 mmHg 66%
20:00 +18°C° 0 mm 1 mps 751 mmHg 76%
21:00 +15°C° 0 mm 1 mps 751 mmHg 79%
22:00 +14°C° 0 mm 1 mps 751 mmHg 83%
23:00 +12°C° 0 mm 0 mps 751 mmHg 87%

15 July, Wednesday

Time Temperature Precipitation Wind Pressure Humidity
00:00 +11°C° 0 mm 0 mps 751 mmHg 87%
01:00 +11°C° 0 mm 0 mps 751 mmHg 88%
02:00 +10°C° 0 mm 0 mps 751 mmHg 88%
03:00 +11°C° 0 mm 0 mps 751 mmHg 87%
04:00 +11°C° 0 mm 0 mps 751 mmHg 87%
05:00 +11°C° 0 mm 0 mps 751 mmHg 86%
06:00 +13°C° 0 mm 0 mps 751 mmHg 78%
07:00 +16°C° 0 mm 0 mps 751 mmHg 70%
08:00 +18°C° 0 mm 0 mps 751 mmHg 62%
09:00 +20°C° 0 mm 0 mps 751 mmHg 57%
10:00 +21°C° 0 mm 0 mps 751 mmHg 53%
11:00 +23°C° 0 mm 0 mps 751 mmHg 48%
12:00 +25°C° 0.1 mm 1 mps 750 mmHg 48%
13:00 +25°C° 0.1 mm 1 mps 750 mmHg 49%
14:00 +24°C° 0.1 mm 1 mps 750 mmHg 50%
15:00 +24°C° 0.2 mm 1 mps 750 mmHg 56%
16:00 +23°C° 0.2 mm 1 mps 749 mmHg 62%
17:00 +22°C° 0.2 mm 1 mps 749 mmHg 68%
18:00 +21°C° 0.1 mm 1 mps 749 mmHg 73%
19:00 +20°C° 0.1 mm 1 mps 749 mmHg 79%
20:00 +18°C° 0.1 mm 1 mps 749 mmHg 84%
21:00 +16°C° 0 mm 1 mps 749 mmHg 86%
22:00 +15°C° 0 mm 1 mps 749 mmHg 88%
23:00 +14°C° 0 mm 1 mps 749 mmHg 90%

16 July, Thursday

Time Temperature Precipitation Wind Pressure Humidity
00:00 +14°C° 0 mm 1 mps 749 mmHg 90%
01:00 +13°C° 0 mm 1 mps 748 mmHg 91%
02:00 +13°C° 0 mm 1 mps 748 mmHg 91%
03:00 +13°C° 0 mm 1 mps 748 mmHg 91%
04:00 +13°C° 0 mm 1 mps 748 mmHg 91%
05:00 +13°C° 0 mm 1 mps 748 mmHg 91%
06:00 +15°C° 0 mm 1 mps 748 mmHg 83%
07:00 +18°C° 0 mm 1 mps 747 mmHg 75%
08:00 +20°C° 0 mm 1 mps 747 mmHg 67%
09:00 +21°C° 0 mm 2 mps 747 mmHg 62%
10:00 +23°C° 0 mm 2 mps 747 mmHg 56%
11:00 +24°C° 0 mm 2 mps 747 mmHg 51%
12:00 +25°C° 0.1 mm 2 mps 746 mmHg 49%
13:00 +25°C° 0.1 mm 2 mps 746 mmHg 48%
14:00 +26°C° 0.1 mm 1 mps 746 mmHg 47%
15:00 +25°C° 0.1 mm 2 mps 746 mmHg 49%
16:00 +25°C° 0.1 mm 2 mps 745 mmHg 51%
17:00 +24°C° 0.1 mm 2 mps 745 mmHg 53%
18:00 +23°C° 0.1 mm 2 mps 745 mmHg 60%
19:00 +20°C° 0.1 mm 2 mps 745 mmHg 67%
20:00 +19°C° 0.1 mm 2 mps 745 mmHg 74%
21:00 +17°C° 0 mm 2 mps 745 mmHg 77%
22:00 +16°C° 0 mm 2 mps 745 mmHg 79%
23:00 +15°C° 0 mm 2 mps 746 mmHg 82%

17 July, Friday

Time Temperature Precipitation Wind Pressure Humidity
00:00 +14°C° 0 mm 2 mps 745 mmHg 84%
01:00 +13°C° 0 mm 2 mps 745 mmHg 86%
02:00 +12°C° 0 mm 2 mps 745 mmHg 89%
03:00 +12°C° 0 mm 2 mps 745 mmHg 91%
04:00 +12°C° 0 mm 2 mps 746 mmHg 93%
05:00 +12°C° 0 mm 2 mps 746 mmHg 95%
06:00 +14°C° 0 mm 2 mps 746 mmHg 86%
07:00 +16°C° 0 mm 2 mps 746 mmHg 77%
08:00 +18°C° 0 mm 3 mps 746 mmHg 69%
09:00 +19°C° 0 mm 3 mps 746 mmHg 62%
10:00 +20°C° 0 mm 3 mps 746 mmHg 55%
11:00 +22°C° 0 mm 3 mps 746 mmHg 49%
12:00 +22°C° 0 mm 3 mps 746 mmHg 45%
13:00 +24°C° 0 mm 3 mps 746 mmHg 42%
14:00 +24°C° 0 mm 3 mps 746 mmHg 39%
15:00 +24°C° 0 mm 3 mps 746 mmHg 40%
16:00 +24°C° 0 mm 3 mps 746 mmHg 40%
17:00 +24°C° 0 mm 3 mps 746 mmHg 41%
18:00 +21°C° 0 mm 3 mps 746 mmHg 50%
19:00 +19°C° 0 mm 2 mps 746 mmHg 60%
20:00 +18°C° 0 mm 2 mps 746 mmHg 69%
21:00 +16°C° 0 mm 2 mps 747 mmHg 72%
22:00 +15°C° 0 mm 2 mps 747 mmHg 75%
23:00 +13°C° 0 mm 2 mps 748 mmHg 78%
Show more